Wind_Speed
14 13 13 14 11 14 25 30 28 27 22 19 23 24 25 26 20 7 5 6 9 9 15 17 21 20 20 20 17 16 13 13 12 10 8 9 10 7 7 7 8 9 10 8 9 9 8 6 3
16 16 15 16 16 23 29 26 24 21 22 22 22 21 23 24 21 21 18 17 17 13 15 19 21 23 23 23 20 19 17 16 13 13 12 12 12 11 10 11 9 8 7 9 9 8 11 5 3
18 18 18 15 24 35 29 25 20 18 19 22 23 22 23 26 20 19 18 19 20 19 17 19 20 26 23 24 25 22 20 18 17 16 16 16 16 15 14 12 12 10 9 9 8 9 11 10 10
18 20 21 25 27 22 26 28 23 19 18 20 21 19 25 22 20 19 20 18 17 14 17 19 20 23 24 25 27 23 19 19 21 20 19 18 17 17 16 15 16 14 13 13 12 12 9 9 11
20 23 26 29 34 34 29 23 19 18 19 18 19 23 23 19 18 18 20 19 17 16 15 19 20 19 22 24 26 22 18 20 21 20 19 19 19 18 19 18 17 17 17 15 13 16 15 14 13
23 24 26 32 36 33 30 27 26 24 23 22 22 22 23 23 23 21 22 21 19 18 19 21 23 22 22 21 25 24 22 23 25 24 23 21 20 18 19 19 20 19 19 16 16 17 16 16 16
26 28 34 35 37 36 32 27 27 22 22 23 25 28 27 25 24 23 23 23 22 21 21 21 22 22 23 22 24 25 26 23 23 26 23 25 22 21 20 21 20 19 23 21 20 20 19 19 18
27 30 35 38 39 39 36 34 30 29 27 27 26 31 30 25 24 25 22 23 23 23 23 23 24 24 24 23 25 24 23 20 20 20 22 24 23 22 20 21 20 19 20 21 21 22 22 22 22
27 31 38 40 38 36 35 33 30 29 28 27 26 26 27 26 25 23 22 21 21 22 25 26 26 26 26 25 25 24 23 22 22 21 21 22 22 21 21 20 21 21 21 21 22 22 23 23 24
31 37 38 37 36 35 34 33 32 31 30 28 27 24 25 25 26 25 22 21 21 22 23 26 27 27 27 27 27 26 25 24 24 24 23 22 22 22 22 22 22 23 23 23 23 24 25 26 26
33 38 34 35 36 35 33 33 33 32 31 28 24 21 23 25 26 25 25 24 23 23 25 25 27 29 29 29 28 28 27 26 25 25 25 24 24 25 25 26 26 26 25 27 26 25 26 27 27
35 34 34 34 34 34 36 35 37 36 31 29 29 28 28 26 26 25 25 26 28 26 26 27 29 30 31 30 30 30 29 29 28 28 27 27 27 27 28 28 28 28 27 26 25 26 26 27 27
31 29 31 31 31 34 36 36 36 34 29 29 29 27 26 26 26 28 28 29 30 28 28 29 29 30 32 33 33 32 31 31 30 30 29 29 29 29 29 28 28 28 27 26 25 24 25 25 25
31 32 31 30 29 32 34 34 35 25 23 26 26 27 28 28 28 29 29 30 30 29 29 30 32 33 33 34 34 34 34 33 31 31 31 30 30 30 29 28 27 26 25 26 26 27 27 26 26
30 32 31 31 31 34 33 43 38 23 23 25 28 29 29 29 30 29 28 29 30 29 30 30 32 34 35 36 36 36 35 35 34 34 33 32 32 31 30 30 29 28 27 26 26 27 28 28 29
32 34 35 31 27 26 25 37 21 25 21 18 19 20 21 20 21 24 26 29 31 30 30 31 32 34 36 37 37 37 37 36 35 35 34 33 32 32 30 30 29 29 28 27 26 27 28 28 28
25 29 32 33 26 26 27 30 22 19 19 18 17 18 18 18 18 18 20 25 27 28 29 31 32 34 37 38 38 38 38 36 36 35 34 33 33 33 31 30 29 28 27 27 25 25 27 28 29
23 22 22 22 21 27 31 37 29 27 27 24 26 26 26 28 28 29 28 29 28 29 30 31 33 35 37 38 38 38 37 37 36 35 35 34 34 34 32 31 30 29 27 26 26 25 26 27 28
23 27 30 24 26 34 35 40 33 29 32 31 30 31 32 33 33 34 33 33 35 37 38 37 36 35 36 37 36 36 36 36 36 35 35 35 34 33 33 32 30 30 29 28 27 26 26 27 27
17 22 26 29 28 32 39 47 44 39 35 29 29 31 35 37 39 40 40 39 38 38 36 37 37 36 34 34 34 35 36 37 36 35 34 34 33 32 32 32 32 32 32 31 29 28 27 27 27
21 26 30 30 29 32 36 43 19 8 12 25 24 24 25 28 34 34 35 32 35 38 37 36 36 34 33 34 34 34 33 34 33 31 31 30 31 31 32 32 32 33 33 32 31 29 28 27 28
29 25 25 26 23 12 15 11 24 18 9 14 24 29 30 28 28 32 31 30 31 32 34 35 35 34 33 31 30 30 30 29 30 30 29 29 30 30 31 31 31 31 31 30 30 29 28 27 27
25 29 25 24 23 24 20 9 19 25 23 21 24 23 21 16 11 13 17 22 25 29 31 32 33 33 30 28 27 27 28 28 28 28 28 28 28 28 28 28 28 28 28 28 28 28 28 28 28
20 22 21 19 17 5 13 15 7 4 3 6 3 5 5 6 7 6 8 11 15 22 27 30 30 29 27 25 25 24 25 25 24 25 26 27 27 27 27 26 26 26 26 26 26 26 27 28 30
9 11 5 3 1 4 2 8 11 15 6 9 11 13 12 10 9 8 6 4 7 11 19 25 27 25 24 23 23 24 24 24 25 26 27 27 26 25 25 25 25 25 25 25 27 28 30 32 33
15 8 4 4 2 4 13 7 1 13 13 12 12 12 12 11 8 7 6 4 4 2 8 14 20 23 24 23 25 25 26 27 28 29 29 28 28 27 26 26 26 26 28 31 31 31 33 34 36
3 6 6 5 8 2 6 5 11 11 12 7 3 2 10 16 16 15 10 11 8 9 11 12 14 16 21 24 26 27 27 27 28 28 28 28 27 26 25 27 31 32 33 33 33 33 35 37 38
15 11 6 7 4 5 4 7 10 19 11 3 4 14 16 20 21 20 16 14 13 13 15 18 22 26 26 27 29 29 29 29 28 29 29 28 26 26 25 28 28 29 29 30 32 34 36 37 37
18 17 15 9 7 3 4 7 12 23 14 6 9 17 22 26 22 16 14 14 14 17 22 24 28 31 31 30 28 28 27 28 29 30 30 29 28 27 27 28 30 30 31 32 33 34 34 35 35
18 19 18 10 5 9 7 10 13 11 2 7 20 27 29 25 18 13 8 9 14 19 19 22 26 29 29 29 28 28 27 28 29 30 30 29 29 28 30 30 28 29 31 32 31 31 31 31 30
Wind_Direction
242 235 228 224 216 227 237 241 248 253 254 256 252 248 252 251 249 240 252 252 243 251 246 236 226 223 224 225 221 219 214 215 211 217 217 195 193 217 209 212 200 202 200 205 193 209 192 192 208
245 240 231 227 227 228 244 252 256 262 260 261 257 253 254 256 253 252 261 270 267 261 256 245 229 218 222 228 222 224 220 224 223 222 219 224 215 211 210 220 228 225 214 210 219 206 206 233 213
247 242 235 227 236 238 247 260 264 257 255 256 254 251 249 252 248 252 267 283 282 267 244 245 231 217 223 227 232 231 236 229 228 226 225 230 234 224 218 215 223 220 223 227 209 214 219 219 224
249 243 237 236 239 253 253 258 266 267 264 256 253 249 250 252 251 260 269 278 277 260 239 240 230 220 228 232 235 237 244 239 222 222 224 229 233 232 224 222 220 222 221 222 225 224 216 215 219
252 248 244 246 250 253 257 262 262 262 266 259 251 249 252 256 256 259 268 269 268 261 236 228 233 242 243 238 237 233 244 244 233 229 231 232 230 232 230 227 222 225 227 229 230 230 231 226 220
251 248 246 249 258 262 263 265 267 266 267 264 257 255 256 257 256 259 265 262 263 257 243 235 233 240 240 240 233 239 247 244 236 234 235 238 235 232 232 231 229 233 235 230 233 236 232 230 231
253 255 256 262 267 268 266 266 268 269 267 266 264 262 261 260 259 258 257 259 257 253 248 242 238 239 233 226 230 239 248 249 244 235 232 236 238 235 238 236 233 232 230 232 234 234 232 230 231
246 248 253 261 264 270 272 271 270 269 269 265 263 257 259 259 260 263 258 260 258 254 251 244 237 236 235 231 230 236 244 248 250 245 240 240 245 247 246 245 245 243 239 237 236 236 239 239 237
247 242 249 260 262 268 276 275 273 271 270 271 263 262 264 261 257 259 261 260 259 257 254 249 244 241 237 237 239 239 239 242 244 244 245 241 240 243 248 249 253 252 250 248 246 242 242 241 241
248 248 258 266 269 271 274 274 273 272 269 266 266 267 263 261 255 258 256 257 260 259 254 251 248 244 243 242 242 242 243 241 241 244 244 246 247 249 250 249 250 255 258 255 253 252 248 246 245
260 261 276 272 273 274 272 271 271 269 264 269 274 263 254 252 252 248 250 258 262 256 251 247 246 245 245 244 244 245 246 247 246 244 244 245 246 248 252 257 260 259 255 256 257 253 251 249 247
261 271 272 273 272 270 270 270 268 268 272 270 266 261 259 255 256 255 250 254 257 258 251 247 244 242 243 244 243 244 245 247 247 247 247 247 248 250 253 257 259 261 260 256 250 250 250 248 246
269 277 274 273 272 271 269 270 270 269 272 270 267 265 265 260 257 257 259 257 256 257 252 246 244 243 242 242 243 245 246 245 246 246 248 250 251 251 251 251 252 252 255 256 254 251 249 249 249
279 279 276 273 274 273 274 275 270 280 276 271 268 267 264 261 259 254 254 258 258 253 248 245 242 241 241 242 244 245 246 247 248 249 251 253 256 261 264 264 261 255 247 245 248 249 249 250 251
273 274 274 275 279 278 281 273 275 287 275 271 271 269 265 261 257 257 255 250 250 247 245 243 242 241 240 240 241 244 246 247 249 251 252 254 257 259 261 261 259 256 254 252 251 250 249 247 246
272 275 277 283 286 281 277 272 279 293 286 280 280 277 267 260 257 252 250 249 248 247 247 245 243 242 243 243 243 243 244 247 250 252 255 257 259 261 262 259 257 256 255 253 252 253 253 252 249
270 269 277 286 290 286 280 279 296 293 288 279 275 272 268 262 261 264 262 257 253 249 247 245 244 243 243 242 242 244 246 249 251 254 257 259 262 264 263 263 260 260 259 259 258 255 254 253 252
274 276 287 292 292 290 288 287 290 291 286 280 278 278 274 271 269 265 260 255 253 252 250 249 246 244 243 244 244 244 246 249 251 254 256 259 262 264 265 264 265 266 266 266 264 260 256 253 250
280 280 283 293 298 294 294 293 293 291 286 286 283 277 270 266 264 263 258 254 250 249 248 249 249 249 248 248 247 247 249 250 250 252 254 257 259 260 262 263 264 265 266 265 263 259 255 253 252
281 286 293 301 299 296 294 291 295 294 294 289 279 268 264 261 257 257 258 254 251 250 249 249 248 246 245 245 245 245 246 248 249 252 256 259 262 263 265 267 268 268 268 268 265 259 254 252 254
298 295 299 295 297 293 298 298 306 307 292 288 277 269 265 264 266 264 257 254 247 245 245 247 248 248 246 244 245 247 250 254 255 256 259 261 264 267 268 269 269 270 270 269 267 263 258 256 255
295 298 298 297 300 293 293 294 293 310 298 284 276 274 272 264 261 268 257 250 242 238 236 236 238 241 243 246 247 249 249 250 255 259 261 263 265 266 268 269 271 271 270 269 268 267 265 263 263
287 290 290 291 290 289 279 237 284 290 287 272 268 273 275 277 254 241 242 240 232 228 227 230 234 237 238 239 242 244 246 250 254 258 261 263 264 266 267 267 267 267 266 264 264 265 266 268 269
284 291 300 290 268 250 266 223 279 276 300 358 36 224 232 235 231 223 227 233 236 229 221 223 227 232 233 236 241 245 248 249 252 257 262 265 266 266 266 266 264 262 261 263 264 266 268 270 271
319 318 313 301 237 246 23 212 263 299 300 153 131 119 113 102 90 89 107 157 202 224 230 226 224 227 229 231 234 239 243 247 253 256 258 258 262 265 265 263 262 263 264 265 271 274 275 274 274
297 285 209 262 270 289 299 242 311 133 135 137 146 146 126 105 92 70 34 27 34 203 215 225 222 221 222 228 236 240 243 244 245 245 247 251 255 254 255 259 260 262 266 273 279 279 279 277 275
310 250 271 244 274 258 243 242 167 159 158 165 186 329 343 339 331 333 319 321 308 285 257 218 214 224 228 232 239 245 250 252 254 254 253 250 247 249 252 254 253 259 266 272 274 275 274 274 273
278 257 218 224 230 233 261 249 189 195 201 265 322 342 342 338 331 325 316 303 285 264 253 240 231 220 224 230 233 236 241 246 248 250 254 256 258 261 263 271 277 279 281 280 279 277 275 272 270
259 242 247 250 247 225 272 261 200 209 219 302 324 325 321 319 315 304 294 268 262 248 234 227 222 221 223 230 236 242 247 249 249 247 246 248 253 258 266 274 281 283 283 280 276 273 269 267 265
259 251 257 237 236 235 264 268 207 244 225 317 316 312 308 308 305 302 272 248 248 239 233 228 229 228 228 230 236 241 246 247 246 244 246 249 255 262 272 276 281 282 280 276 273 269 267 266 267
Height
3129 3129 3130 3131 3137 3130 3126 3125 3126 3128 3130 3132 3133 3134 3135 3135 3138 3141 3136 3137 3139 3140 3141 3142 3144 3147 3149 3150 3152 3153 3156 3157 3158 3159 3161 3161 3163 3164 3165 3167 3168 3168 3169 3170 3172 3174 3176 3177 3178
3126 3127 3128 3127 3128 3123 3119 3121 3122 3126 3127 3128 3129 3130 3131 3132 3133 3134 3136 3136 3137 3138 3139 3140 3141 3144 3145 3147 3149 3150 3152 3154 3155 3157 3159 3161 3161 3162 3164 3166 3167 3168 3169 3170 3172 3173 3175 3177 3178
3123 3124 3126 3124 3119 3114 3115 3119 3122 3123 3123 3124 3125 3126 3126 3126 3130 3131 3132 3133 3133 3134 3136 3137 3138 3141 3143 3144 3145 3146 3149 3151 3153 3154 3156 3158 3159 3160 3162 3164 3165 3167 3168 3170 3170 3173 3175 3176 3177
3120 3121 3122 3117 3112 3114 3115 3117 3118 3119 3120 3120 3121 3123 3122 3123 3125 3127 3128 3128 3129 3130 3132 3134 3136 3138 3140 3142 3143 3145 3147 3149 3150 3151 3153 3155 3156 3158 3159 3161 3163 3164 3165 3167 3169 3171 3173 3174 3175
3117 3116 3115 3110 3109 3111 3114 3115 3116 3116 3116 3117 3117 3118 3118 3120 3121 3123 3123 3124 3124 3125 3127 3130 3132 3135 3137 3139 3141 3144 3146 3146 3148 3149 3150 3151 3153 3155 3157 3158 3159 3162 3163 3165 3166 3168 3170 3172 3173
3112 3112 3109 3104 3105 3108 3110 3112 3112 3113 3113 3113 3113 3114 3115 3117 3118 3119 3118 3118 3119 3120 3122 3124 3126 3129 3131 3135 3137 3140 3142 3142 3143 3144 3146 3147 3149 3151 3153 3154 3155 3157 3160 3161 3163 3165 3167 3168 3169
3106 3105 3102 3102 3101 3103 3105 3107 3107 3108 3108 3109 3109 3109 3110 3112 3113 3114 3114 3114 3114 3115 3116 3119 3122 3123 3125 3129 3132 3135 3136 3138 3139 3139 3141 3143 3145 3147 3148 3149 3151 3153 3155 3158 3159 3161 3164 3165 3166
3100 3099 3096 3095 3095 3094 3098 3100 3102 3103 3104 3104 3104 3101 3104 3107 3108 3108 3109 3110 3110 3111 3112 3113 3115 3117 3120 3123 3125 3128 3129 3131 3133 3136 3137 3139 3140 3141 3144 3145 3146 3147 3150 3152 3155 3157 3159 3160 3161
3095 3092 3088 3086 3089 3091 3092 3094 3095 3096 3096 3097 3097 3098 3099 3101 3102 3103 3104 3105 3105 3106 3107 3108 3111 3113 3115 3117 3119 3122 3124 3126 3127 3129 3132 3135 3136 3136 3138 3140 3142 3143 3145 3147 3149 3151 3154 3155 3156
3087 3083 3083 3084 3086 3087 3088 3088 3088 3089 3089 3090 3091 3093 3094 3094 3096 3097 3098 3099 3100 3101 3102 3103 3106 3107 3110 3112 3114 3116 3118 3120 3122 3124 3126 3128 3130 3132 3134 3135 3137 3138 3140 3142 3143 3145 3147 3149 3151
3079 3077 3081 3081 3081 3081 3081 3081 3080 3080 3081 3084 3086 3086 3086 3087 3088 3091 3093 3094 3094 3095 3096 3098 3100 3102 3104 3106 3109 3110 3112 3114 3116 3117 3120 3122 3124 3127 3128 3129 3131 3133 3136 3137 3138 3139 3141 3143 3145
3072 3074 3074 3076 3076 3076 3074 3074 3072 3072 3077 3077 3078 3078 3079 3081 3083 3085 3086 3087 3087 3088 3090 3091 3093 3096 3098 3100 3102 3104 3106 3108 3110 3112 3114 3115 3117 3120 3122 3124 3125 3126 3128 3130 3132 3134 3135 3137 3139
3066 3069 3068 3068 3069 3067 3066 3065 3064 3065 3070 3070 3070 3071 3073 3074 3076 3077 3079 3080 3080 3082 3083 3085 3087 3089 3091 3093 3095 3097 3099 3102 3104 3106 3108 3110 3111 3114 3116 3118 3120 3121 3121 3122 3124 3126 3128 3131 3132
3061 3061 3062 3061 3063 3059 3058 3058 3056 3062 3063 3063 3063 3064 3065 3066 3068 3069 3070 3072 3073 3074 3075 3077 3079 3081 3084 3086 3088 3090 3092 3094 3096 3098 3101 3102 3104 3106 3107 3109 3110 3112 3115 3117 3119 3120 3121 3123 3125
3054 3053 3054 3055 3056 3053 3053 3045 3049 3056 3055 3055 3055 3056 3057 3058 3059 3061 3063 3063 3064 3065 3067 3069 3071 3073 3075 3078 3080 3083 3085 3087 3089 3091 3093 3095 3097 3099 3101 3103 3104 3106 3108 3109 3111 3113 3115 3117 3118
3051 3048 3045 3048 3049 3048 3048 3037 3048 3049 3049 3049 3049 3049 3050 3050 3052 3053 3054 3055 3055 3057 3059 3062 3064 3067 3069 3071 3073 3075 3077 3080 3082 3083 3085 3088 3089 3091 3093 3096 3098 3100 3102 3104 3105 3107 3108 3110 3112
3044 3041 3041 3043 3044 3042 3041 3034 3042 3043 3043 3043 3043 3044 3045 3045 3045 3047 3048 3049 3049 3050 3052 3054 3056 3058 3060 3062 3065 3068 3070 3073 3075 3077 3079 3081 3083 3084 3086 3088 3089 3092 3094 3097 3099 3100 3101 3102 3105
3039 3038 3037 3038 3039 3036 3033 3029 3035 3036 3034 3036 3037 3038 3038 3038 3039 3039 3041 3042 3043 3043 3044 3046 3048 3050 3052 3055 3058 3061 3064 3066 3068 3071 3073 3075 3077 3078 3080 3081 3082 3083 3085 3087 3090 3093 3094 3096 3098
3037 3035 3033 3034 3033 3028 3026 3021 3026 3028 3026 3028 3029 3029 3028 3028 3029 3029 3030 3032 3033 3033 3035 3037 3039 3042 3045 3048 3051 3054 3058 3060 3061 3064 3066 3068 3069 3070 3072 3074 3075 3076 3078 3079 3082 3084 3086 3088 3089
3031 3029 3028 3027 3027 3022 3018 3010 3015 3017 3015 3015 3015 3015 3014 3015 3016 3016 3018 3020 3022 3023 3027 3029 3031 3034 3037 3040 3043 3046 3048 3051 3053 3056 3058 3060 3061 3062 3063 3065 3067 3068 3070 3071 3073 3077 3079 3081 3081
3027 3025 3022 3022 3019 3016 3010 2999 3004 3007 3009 3008 3007 3006 3006 3007 3006 3006 3006 3008 3010 3012 3016 3020 3024 3028 3030 3032 3035 3038 3041 3044 3047 3048 3049 3051 3053 3054 3055 3056 3058 3059 3061 3062 3064 3067 3070 3072 3074
3018 3019 3017 3015 3015 3012 3010 3000 2995 2998 2999 3000 2998 2996 2996 2995 2996 2996 2997 2999 3000 3002 3006 3009 3013 3018 3021 3026 3029 3032 3034 3036 3039 3041 3042 3043 3045 3046 3047 3049 3050 3051 3052 3054 3055 3057 3059 3062 3065
3014 3012 3011 3009 3008 3007 3002 3007 2989 2992 2992 2990 2990 2989 2989 2988 2988 2988 2989 2991 2992 2994 2997 3001 3005 3009 3014 3018 3021 3024 3027 3029 3031 3033 3035 3036 3038 3039 3040 3041 3042 3044 3045 3046 3048 3049 3050 3052 3054
3008 3007 3006 3003 3003 3002 2993 2997 2986 2987 2987 2987 2985 2984 2985 2986 2985 2985 2986 2986 2988 2989 2992 2994 2998 3002 3007 3012 3015 3018 3021 3022 3024 3026 3028 3030 3032 3033 3034 3035 3036 3037 3038 3040 3041 3041 3042 3043 3045
3005 3005 3004 3002 3001 2995 2993 2995 2986 2984 2983 2985 2983 2983 2983 2985 2985 2984 2984 2983 2984 2985 2989 2991 2994 2998 3002 3005 3008 3011 3013 3015 3017 3019 3021 3023 3025 3027 3029 3030 3031 3032 3032 3033 3034 3034 3034 3035 3035
3002 3005 3005 3002 2998 2996 2991 2989 2985 2983 2982 2981 2980 2979 2979 2980 2982 2983 2986 2986 2984 2985 2986 2988 2991 2994 2997 2999 3002 3004 3006 3008 3010 3011 3014 3015 3017 3019 3022 3024 3025 3025 3025 3025 3026 3027 3027 3026 3027
3000 3000 3001 2999 2996 2995 2984 2982 2984 2980 2979 2978 2978 2978 2978 2979 2978 2979 2980 2981 2984 2986 2986 2986 2988 2991 2993 2995 2997 2998 3000 3001 3003 3005 3008 3009 3011 3013 3014 3015 3015 3017 3017 3018 3018 3019 3020 3020 3019
2998 2997 2995 2996 2994 2988 2980 2976 2974 2976 2977 2976 2976 2976 2976 2977 2977 2977 2977 2978 2979 2981 2983 2984 2984 2985 2987 2988 2990 2992 2994 2997 2999 3001 3003 3005 3006 3007 3008 3009 3009 3010 3010 3010 3010 3010 3010 3010 3010
2991 2990 2990 2991 2988 2984 2978 2973 2971 2972 2972 2973 2973 2972 2972 2972 2973 2972 2972 2971 2972 2974 2975 2976 2976 2977 2979 2982 2985 2987 2989 2992 2994 2996 2998 2999 3001 3002 3002 3003 3002 3003 3003 3002 3002 3001 3000 3000 3000
2986 2984 2985 2984 2983 2980 2977 2971 2971 2970 2968 2969 2970 2968 2966 2966 2966 2966 2966 2966 2966 2968 2968 2969 2971 2972 2974 2977 2979 2981 2983 2985 2987 2989 2992 2992 2993 2994 2995 2996 2996 2996 2995 2993 2993 2992 2991 2990 2989